Torna al catalogo

STARLINK-5683

AttivoComunicazioniVLEO
NORAD 55452·PAYLOAD·🇺🇸 United States

Lanciato Feb 2, 2023 da Cape Canaveral Space Force Station

Loading…

Prossimi Passaggi (prossime 24 ore)

TLE

AggiornatoSource: CelesTrak SupGP

Epoca: Sep 15, 2026, 02:33 UTC

1 55452C 23015D   26258.10673611  .00027706  00000+0  10034-2 0  2589
2 55452  43.0039 339.4554 0002159 273.9015 153.8292 15.27566391    15

Traccia STARLINK-5683 in tempo reale con AllMySat

Download on the App Store